RYR1JE EPMO-LBBG

Flight info

Callsign RYR1JE
Flight time 1h 57m
Altitude 37000
Route XIMBA N195 VENES DCT KSC N133 KEKED DCT PARAK M173 TISAK P192 OKLOP M19 ETIDA Q27 GRN N605 ALIVI L742 ESENA
Aircraft B738/M-SDE2E3FGHIRWXY/LB1

Departure

Time 2026-05-06 13:51
Airport Warsaw Modlin Airport (EPMO)

Arrival

Time 2026-05-06 15:48
Airport Burgas Airport (LBBG)
Time Latitude Longitude Altitude Speed Heading
2026-05-06 13:21 52.44748 20.65261 337 ft 0 kts 206°
2026-05-06 13:42 52.44755 20.65266 332 ft 2 kts 202°
2026-05-06 13:42 52.44773 20.65274 335 ft 3 kts 170°
2026-05-06 13:43 52.44787 20.65265 333 ft 3 kts 116°
2026-05-06 13:43 52.44790 20.65247 333 ft 1 kts 81°
2026-05-06 13:43 52.44790 20.65241 333 ft 0 kts 81°
2026-05-06 13:46 52.44790 20.65251 333 ft 0 kts 81°
2026-05-06 13:47 52.44804 20.65400 337 ft 13 kts 82°
2026-05-06 13:47 52.44817 20.65541 336 ft 12 kts 82°
2026-05-06 13:47 52.44828 20.65679 337 ft 12 kts 83°
2026-05-06 13:47 52.44842 20.65830 335 ft 15 kts 81°
2026-05-06 13:48 52.44861 20.66018 337 ft 18 kts 81°
2026-05-06 13:48 52.44880 20.66228 333 ft 20 kts 81°
2026-05-06 13:48 52.44903 20.66477 336 ft 23 kts 81°
2026-05-06 13:48 52.44928 20.66737 336 ft 23 kts 81°
2026-05-06 13:49 52.44951 20.66984 335 ft 17 kts 82°
2026-05-06 13:49 52.45019 20.67078 336 ft 14 kts 353°
2026-05-06 13:49 52.45123 20.67051 336 ft 16 kts 351°
2026-05-06 13:49 52.45231 20.67009 335 ft 16 kts 341°
2026-05-06 13:50 52.45290 20.66964 336 ft 6 kts 272°
2026-05-06 13:50 52.45278 20.66842 336 ft 29 kts 261°
2026-05-06 13:50 52.45207 20.66084 337 ft 103 kts 261°
2026-05-06 13:50 52.45068 20.64592 386 ft 156 kts 262°
2026-05-06 13:51 52.44931 20.62789 1126 ft 164 kts 262°
2026-05-06 13:51 52.44782 20.60880 1893 ft 173 kts 260°
2026-05-06 13:51 52.44613 20.58862 2641 ft 186 kts 261°
2026-05-06 13:51 52.44451 20.56732 3451 ft 187 kts 263°
2026-05-06 13:52 52.44322 20.54596 4234 ft 191 kts 262°
2026-05-06 13:52 52.43922 20.52422 4633 ft 214 kts 234°
2026-05-06 13:52 52.42724 20.50825 4952 ft 244 kts 202°
2026-05-06 13:52 52.40992 20.50241 5698 ft 254 kts 189°
2026-05-06 13:53 52.39238 20.50045 6595 ft 257 kts 187°
2026-05-06 13:53 52.37427 20.49927 7433 ft 263 kts 186°
2026-05-06 13:53 52.35587 20.49822 8303 ft 265 kts 186°
2026-05-06 13:53 52.33728 20.49714 9151 ft 270 kts 186°
2026-05-06 13:54 52.31822 20.49596 9965 ft 275 kts 187°
2026-05-06 13:54 52.29845 20.49464 10350 ft 297 kts 186°
2026-05-06 13:54 52.27724 20.49312 10546 ft 322 kts 186°
2026-05-06 13:54 52.25401 20.49145 10786 ft 343 kts 186°
2026-05-06 13:55 52.22991 20.48977 11433 ft 350 kts 185°
2026-05-06 13:55 52.20551 20.48807 12220 ft 352 kts 185°
2026-05-06 13:55 52.18081 20.48634 12987 ft 356 kts 185°
2026-05-06 13:55 52.15590 20.48456 13716 ft 360 kts 185°
2026-05-06 13:56 52.13068 20.48276 14429 ft 363 kts 185°
2026-05-06 13:56 52.10533 20.48092 15114 ft 366 kts 185°
2026-05-06 13:56 52.08002 20.47908 15804 ft 369 kts 186°
2026-05-06 13:56 52.05417 20.47719 16462 ft 372 kts 186°
2026-05-06 13:57 52.02815 20.47528 17137 ft 376 kts 186°
2026-05-06 13:57 52.00190 20.47335 17782 ft 379 kts 186°
2026-05-06 13:57 51.97544 20.47141 18375 ft 382 kts 186°
2026-05-06 13:57 51.94873 20.46945 18959 ft 384 kts 186°
2026-05-06 13:58 51.92191 20.46750 19559 ft 386 kts 186°
2026-05-06 13:58 51.89535 20.46557 20134 ft 388 kts 186°
2026-05-06 13:58 51.86821 20.46359 20660 ft 391 kts 186°
2026-05-06 13:58 51.84085 20.46160 21176 ft 394 kts 186°
2026-05-06 13:59 51.81325 20.45959 21702 ft 397 kts 186°
2026-05-06 13:59 51.78583 20.45760 22196 ft 400 kts 186°
2026-05-06 13:59 51.75788 20.45557 22704 ft 403 kts 185°
2026-05-06 13:59 51.72974 20.45353 23186 ft 406 kts 185°
2026-05-06 14:00 51.70135 20.45148 23608 ft 409 kts 185°
2026-05-06 14:00 51.67275 20.44941 24015 ft 411 kts 186°
2026-05-06 14:00 51.64445 20.44737 24423 ft 413 kts 186°
2026-05-06 14:00 51.61555 20.44529 24810 ft 416 kts 186°
2026-05-06 14:01 51.58652 20.44320 25181 ft 419 kts 186°
2026-05-06 14:01 51.55729 20.44110 25546 ft 421 kts 186°
2026-05-06 14:01 51.52777 20.43898 25904 ft 424 kts 186°
2026-05-06 14:01 51.49822 20.43687 26258 ft 426 kts 186°
2026-05-06 14:02 51.46846 20.43474 26615 ft 428 kts 186°
2026-05-06 14:02 51.43896 20.43263 26955 ft 431 kts 186°
2026-05-06 14:02 51.40889 20.43048 27285 ft 433 kts 186°
2026-05-06 14:02 51.37867 20.42833 27607 ft 436 kts 186°
2026-05-06 14:03 51.34831 20.42616 27929 ft 438 kts 186°
2026-05-06 14:03 51.31768 20.42399 28283 ft 439 kts 186°
2026-05-06 14:03 51.28720 20.42184 28787 ft 437 kts 186°
2026-05-06 14:03 51.25691 20.41971 29332 ft 434 kts 186°
2026-05-06 14:04 51.22678 20.41760 29834 ft 432 kts 186°
2026-05-06 14:04 51.19716 20.41551 30213 ft 431 kts 186°
2026-05-06 14:04 51.16719 20.41339 30551 ft 431 kts 186°
2026-05-06 14:04 51.13720 20.41127 30920 ft 430 kts 186°
2026-05-06 14:05 51.10734 20.40916 31313 ft 429 kts 186°
2026-05-06 14:05 51.07757 20.40707 31685 ft 428 kts 186°
2026-05-06 14:05 51.04786 20.40498 32031 ft 427 kts 186°
2026-05-06 14:05 51.01813 20.40289 32379 ft 427 kts 186°
2026-05-06 14:06 50.98886 20.40084 32736 ft 426 kts 186°
2026-05-06 14:06 50.95928 20.39876 33083 ft 425 kts 186°
2026-05-06 14:06 50.92982 20.39670 33431 ft 424 kts 186°
2026-05-06 14:06 50.90027 20.39464 33761 ft 423 kts 186°
2026-05-06 14:07 50.87087 20.39259 34031 ft 423 kts 186°
2026-05-06 14:07 50.84137 20.39053 34277 ft 424 kts 186°
2026-05-06 14:07 50.81181 20.38847 34511 ft 424 kts 186°
2026-05-06 14:07 50.78227 20.38641 34741 ft 425 kts 186°
2026-05-06 14:08 50.75312 20.38438 34987 ft 425 kts 186°
2026-05-06 14:08 50.72352 20.38233 35226 ft 425 kts 186°
2026-05-06 14:08 50.69388 20.38028 35445 ft 425 kts 186°
2026-05-06 14:08 50.66433 20.37824 35690 ft 425 kts 186°
2026-05-06 14:09 50.63471 20.37619 35912 ft 425 kts 186°
2026-05-06 14:09 50.60510 20.37415 36129 ft 426 kts 186°
2026-05-06 14:09 50.57588 20.37214 36356 ft 425 kts 187°
2026-05-06 14:09 50.54629 20.37011 36584 ft 425 kts 187°
2026-05-06 14:10 50.51663 20.36807 36771 ft 426 kts 187°
2026-05-06 14:10 50.49688 20.36671 36808 ft 428 kts 187°
2026-05-06 14:10 50.42751 20.36195 36811 ft 427 kts 187°
2026-05-06 14:11 50.37806 20.35859 36811 ft 424 kts 187°
2026-05-06 14:11 50.30962 20.35395 36811 ft 422 kts 187°
2026-05-06 14:12 50.26091 20.35064 36822 ft 420 kts 187°
2026-05-06 14:12 50.20246 20.34666 36824 ft 419 kts 187°
2026-05-06 14:13 50.14395 20.34269 36829 ft 420 kts 187°
2026-05-06 14:13 50.08535 20.33872 36830 ft 423 kts 187°
2026-05-06 14:14 50.02632 20.33473 36826 ft 425 kts 187°
2026-05-06 14:14 49.96745 20.33078 36832 ft 427 kts 186°
2026-05-06 14:15 49.90784 20.32678 36832 ft 429 kts 187°
2026-05-06 14:15 49.84798 20.32278 36835 ft 431 kts 186°
2026-05-06 14:16 49.78823 20.31881 36842 ft 432 kts 186°
2026-05-06 14:16 49.72809 20.31482 36837 ft 433 kts 186°
2026-05-06 14:17 49.66783 20.31082 36832 ft 433 kts 186°
2026-05-06 14:17 49.60774 20.30685 36840 ft 431 kts 186°
2026-05-06 14:18 49.54776 20.30290 36850 ft 430 kts 187°
2026-05-06 14:18 49.48835 20.29899 36854 ft 429 kts 187°
2026-05-06 14:19 49.42860 20.29506 36857 ft 429 kts 187°
2026-05-06 14:19 49.36900 20.29115 36881 ft 428 kts 187°
2026-05-06 14:20 49.30948 20.28726 36897 ft 427 kts 187°
2026-05-06 14:20 49.25030 20.28340 36905 ft 428 kts 187°
2026-05-06 14:21 49.19068 20.27952 36902 ft 428 kts 187°
2026-05-06 14:21 49.13119 20.27565 36914 ft 428 kts 187°
2026-05-06 14:22 49.07197 20.27181 36909 ft 429 kts 187°
2026-05-06 14:22 49.01214 20.26795 36909 ft 430 kts 187°
2026-05-06 14:23 48.95232 20.26410 36904 ft 430 kts 187°
2026-05-06 14:23 48.89240 20.26024 36903 ft 430 kts 187°
2026-05-06 14:24 48.83283 20.25642 36908 ft 431 kts 187°
2026-05-06 14:24 48.77269 20.25257 36908 ft 432 kts 187°
2026-05-06 14:25 48.71294 20.24873 36897 ft 432 kts 187°
2026-05-06 14:25 48.65273 20.24491 36924 ft 433 kts 187°
2026-05-06 14:26 48.59243 20.24108 36904 ft 434 kts 187°
2026-05-06 14:26 48.53198 20.23726 36912 ft 434 kts 187°
2026-05-06 14:27 48.47193 20.23347 36903 ft 434 kts 187°
2026-05-06 14:27 48.41156 20.22966 36900 ft 434 kts 187°
2026-05-06 14:28 48.35115 20.22586 36898 ft 434 kts 187°
2026-05-06 14:28 48.29078 20.22208 36895 ft 434 kts 187°
2026-05-06 14:29 48.23177 20.21838 36892 ft 433 kts 187°
2026-05-06 14:29 48.17188 20.21464 36906 ft 433 kts 187°
2026-05-06 14:30 48.11161 20.21088 36904 ft 433 kts 187°
2026-05-06 14:30 48.05130 20.20713 36905 ft 433 kts 187°
2026-05-06 14:31 47.99130 20.20340 36897 ft 434 kts 187°
2026-05-06 14:31 47.93080 20.19966 36902 ft 434 kts 187°
2026-05-06 14:32 47.87025 20.19592 36900 ft 435 kts 187°
2026-05-06 14:32 47.80995 20.19221 36899 ft 435 kts 187°
2026-05-06 14:33 47.74936 20.18848 36896 ft 435 kts 187°
2026-05-06 14:33 47.68877 20.18477 36899 ft 435 kts 187°
2026-05-06 14:34 47.62826 20.18107 36898 ft 435 kts 187°
2026-05-06 14:34 47.56794 20.17739 36902 ft 435 kts 187°
2026-05-06 14:35 47.50738 20.17370 36901 ft 435 kts 188°
2026-05-06 14:35 47.44710 20.17003 36903 ft 435 kts 187°
2026-05-06 14:36 47.38655 20.16636 36901 ft 435 kts 188°
2026-05-06 14:36 47.32594 20.16269 36909 ft 436 kts 188°
2026-05-06 14:37 47.26523 20.15903 36909 ft 436 kts 188°
2026-05-06 14:37 47.20487 20.15540 36916 ft 436 kts 188°
2026-05-06 14:38 47.14411 20.15175 36909 ft 436 kts 188°
2026-05-06 14:38 47.08368 20.14813 36911 ft 436 kts 188°
2026-05-06 14:39 47.02301 20.14450 36912 ft 436 kts 188°
2026-05-06 14:39 46.96221 20.14087 36909 ft 436 kts 188°
2026-05-06 14:40 46.90176 20.13728 36907 ft 436 kts 188°
2026-05-06 14:40 46.84098 20.13367 36910 ft 436 kts 188°
2026-05-06 14:41 46.78017 20.13006 36910 ft 436 kts 188°
2026-05-06 14:41 46.71983 20.12650 36911 ft 436 kts 188°
2026-05-06 14:42 46.65906 20.12291 36910 ft 436 kts 188°
2026-05-06 14:42 46.59824 20.11933 36913 ft 436 kts 188°
2026-05-06 14:43 46.53787 20.11579 36907 ft 436 kts 188°
2026-05-06 14:43 46.47703 20.11222 36907 ft 436 kts 188°
2026-05-06 14:44 46.41630 20.10867 36929 ft 437 kts 188°
2026-05-06 14:45 46.32532 20.10336 36913 ft 437 kts 188°
2026-05-06 14:45 46.26455 20.09983 36912 ft 437 kts 188°
2026-05-06 14:46 46.20406 20.09632 36912 ft 437 kts 188°
2026-05-06 14:46 46.14308 20.09643 36913 ft 443 kts 179°
2026-05-06 14:47 46.08183 20.10771 36906 ft 444 kts 178°
2026-05-06 14:47 46.02098 20.11956 36912 ft 443 kts 178°
2026-05-06 14:48 45.95970 20.13097 36912 ft 443 kts 178°
2026-05-06 14:48 45.89843 20.14204 36915 ft 443 kts 178°
2026-05-06 14:49 45.83710 20.15303 36916 ft 443 kts 178°
2026-05-06 14:49 45.77621 20.16394 36916 ft 444 kts 178°
2026-05-06 14:50 45.71485 20.17492 36920 ft 444 kts 178°
2026-05-06 14:50 45.65371 20.18583 36918 ft 444 kts 178°
2026-05-06 14:51 45.59226 20.19678 36922 ft 444 kts 178°
2026-05-06 14:51 45.53088 20.20770 36921 ft 445 kts 178°
2026-05-06 14:52 45.46929 20.21862 36921 ft 445 kts 178°
2026-05-06 14:52 45.40926 20.24074 36924 ft 456 kts 161°
2026-05-06 14:53 45.35388 20.28673 36927 ft 462 kts 151°
2026-05-06 14:53 45.30013 20.33704 36928 ft 463 kts 150°
2026-05-06 14:54 45.24617 20.38704 36926 ft 463 kts 151°
2026-05-06 14:54 45.19225 20.43623 36930 ft 463 kts 151°
2026-05-06 14:55 45.13780 20.48551 36933 ft 463 kts 151°
2026-05-06 14:55 45.08368 20.53435 36929 ft 464 kts 151°
2026-05-06 14:56 45.02929 20.58335 36932 ft 464 kts 151°
2026-05-06 14:56 44.97474 20.63240 36933 ft 463 kts 151°
2026-05-06 14:57 44.92019 20.68133 36928 ft 463 kts 151°
2026-05-06 14:57 44.86611 20.72973 36928 ft 463 kts 151°
2026-05-06 14:58 44.81160 20.77841 36926 ft 463 kts 151°
2026-05-06 14:58 44.75724 20.82685 36925 ft 462 kts 151°
2026-05-06 14:59 44.71200 20.86707 36921 ft 462 kts 151°
2026-05-06 14:59 44.64875 20.92319 36925 ft 462 kts 151°
2026-05-06 15:00 44.60345 20.96328 36920 ft 462 kts 151°
2026-05-06 15:00 44.54897 21.01141 36927 ft 462 kts 151°
2026-05-06 15:01 44.49445 21.05947 36927 ft 462 kts 151°
2026-05-06 15:01 44.44014 21.10723 36926 ft 462 kts 151°
2026-05-06 15:02 44.38561 21.15508 36931 ft 463 kts 151°
2026-05-06 15:02 44.33100 21.20291 36930 ft 463 kts 151°
2026-05-06 15:03 44.27623 21.25077 36932 ft 464 kts 151°
2026-05-06 15:03 44.22181 21.29822 36932 ft 464 kts 150°
2026-05-06 15:04 44.17260 21.35739 36930 ft 470 kts 132°
2026-05-06 15:04 44.13579 21.43314 36945 ft 473 kts 123°
2026-05-06 15:05 44.10163 21.51100 36955 ft 474 kts 122°
2026-05-06 15:05 44.06683 21.58922 36947 ft 475 kts 123°
2026-05-06 15:06 44.03162 21.66707 36952 ft 475 kts 123°
2026-05-06 15:06 43.99639 21.74443 36949 ft 475 kts 123°
2026-05-06 15:07 43.96097 21.82202 36950 ft 475 kts 123°
2026-05-06 15:07 43.92551 21.89952 36957 ft 475 kts 123°
2026-05-06 15:08 43.89026 21.97641 36951 ft 474 kts 123°
2026-05-06 15:08 43.85478 22.05359 36952 ft 474 kts 123°
2026-05-06 15:09 43.81929 22.13057 36953 ft 473 kts 123°
2026-05-06 15:09 43.78378 22.20740 36950 ft 473 kts 123°
2026-05-06 15:10 43.74847 22.28363 36947 ft 472 kts 123°
2026-05-06 15:10 43.71292 22.36018 36963 ft 472 kts 123°
2026-05-06 15:11 43.68313 22.44046 36939 ft 472 kts 108°
2026-05-06 15:11 43.66838 22.52884 36961 ft 471 kts 100°
2026-05-06 15:12 43.65607 22.61735 36954 ft 472 kts 100°
2026-05-06 15:12 43.64332 22.70649 36964 ft 473 kts 100°
2026-05-06 15:13 43.63013 22.79566 36959 ft 474 kts 100°
2026-05-06 15:13 43.61671 22.88495 36964 ft 474 kts 100°
2026-05-06 15:14 43.60327 22.97383 36952 ft 475 kts 100°
2026-05-06 15:14 43.58969 23.06318 36956 ft 476 kts 100°
2026-05-06 15:15 43.57604 23.15263 36951 ft 476 kts 100°
2026-05-06 15:15 43.56240 23.24149 36953 ft 476 kts 100°
2026-05-06 15:16 43.54859 23.33095 36950 ft 476 kts 100°
2026-05-06 15:16 43.53474 23.42020 36951 ft 475 kts 100°
2026-05-06 15:17 43.52090 23.50895 36949 ft 475 kts 100°
2026-05-06 15:17 43.50696 23.59775 36950 ft 474 kts 100°
2026-05-06 15:18 43.49302 23.68616 36951 ft 474 kts 100°
2026-05-06 15:18 43.47893 23.77503 36948 ft 473 kts 100°
2026-05-06 15:19 43.46488 23.86320 36947 ft 473 kts 100°
2026-05-06 15:19 43.45076 23.95128 36952 ft 472 kts 100°
2026-05-06 15:20 43.43651 24.03973 36952 ft 472 kts 100°
2026-05-06 15:20 43.42220 24.12811 36956 ft 472 kts 100°
2026-05-06 15:21 43.40794 24.21574 36956 ft 472 kts 100°
2026-05-06 15:21 43.39350 24.30398 36960 ft 472 kts 100°
2026-05-06 15:22 43.37897 24.39235 36957 ft 473 kts 100°
2026-05-06 15:22 43.36438 24.48056 36960 ft 473 kts 100°
2026-05-06 15:23 43.34982 24.56819 36966 ft 473 kts 100°
2026-05-06 15:23 43.33508 24.65647 36965 ft 474 kts 100°
2026-05-06 15:24 43.32031 24.74445 36966 ft 474 kts 100°
2026-05-06 15:24 43.30540 24.83286 36969 ft 474 kts 100°
2026-05-06 15:25 43.28839 24.92066 36953 ft 476 kts 110°
2026-05-06 15:25 43.27450 24.96128 36909 ft 464 kts 114°
2026-05-06 15:25 43.26000 25.00039 36271 ft 466 kts 115°
2026-05-06 15:25 43.24498 25.04021 35448 ft 473 kts 115°
2026-05-06 15:26 43.22974 25.08062 34580 ft 480 kts 115°
2026-05-06 15:26 43.21440 25.12166 33716 ft 487 kts 114°
2026-05-06 15:26 43.19891 25.16340 32825 ft 492 kts 114°
2026-05-06 15:26 43.18345 25.20529 32079 ft 493 kts 114°
2026-05-06 15:27 43.16826 25.24656 31600 ft 488 kts 114°
2026-05-06 15:27 43.15303 25.28792 31200 ft 482 kts 114°
2026-05-06 15:27 43.13802 25.32868 30749 ft 477 kts 114°
2026-05-06 15:27 43.12311 25.36912 30262 ft 474 kts 114°
2026-05-06 15:28 43.10824 25.40939 29734 ft 471 kts 114°
2026-05-06 15:28 43.09351 25.44920 29207 ft 466 kts 114°
2026-05-06 15:28 43.07912 25.48805 28709 ft 461 kts 114°
2026-05-06 15:28 43.06468 25.52697 28218 ft 456 kts 114°
2026-05-06 15:29 43.05034 25.56554 27739 ft 451 kts 114°
2026-05-06 15:29 43.03613 25.60375 27248 ft 447 kts 114°
2026-05-06 15:29 43.02208 25.64145 26778 ft 443 kts 114°
2026-05-06 15:29 43.00809 25.67896 26302 ft 439 kts 114°
2026-05-06 15:30 42.99441 25.71557 25853 ft 436 kts 114°
2026-05-06 15:30 42.98070 25.75225 25405 ft 432 kts 114°
2026-05-06 15:30 42.96708 25.78860 24972 ft 428 kts 114°
2026-05-06 15:30 42.95355 25.82469 24514 ft 425 kts 114°
2026-05-06 15:31 42.94013 25.86042 24083 ft 421 kts 115°
2026-05-06 15:31 42.92682 25.89585 23664 ft 418 kts 115°
2026-05-06 15:31 42.91360 25.93097 23189 ft 414 kts 115°
2026-05-06 15:32 42.88747 26.00025 22277 ft 407 kts 115°
2026-05-06 15:32 42.87455 26.03443 21832 ft 403 kts 115°
2026-05-06 15:32 42.86175 26.06827 21386 ft 399 kts 115°
2026-05-06 15:32 42.84905 26.10180 20948 ft 396 kts 115°
2026-05-06 15:33 42.83662 26.13459 20522 ft 392 kts 115°
2026-05-06 15:33 42.82413 26.16751 20110 ft 388 kts 115°
2026-05-06 15:33 42.81173 26.20013 19703 ft 385 kts 115°
2026-05-06 15:33 42.79957 26.23209 19291 ft 382 kts 115°
2026-05-06 15:34 42.78737 26.26413 18906 ft 378 kts 115°
2026-05-06 15:34 42.77527 26.29586 18503 ft 375 kts 115°
2026-05-06 15:34 42.76341 26.32690 18080 ft 372 kts 115°
2026-05-06 15:34 42.75151 26.35806 17614 ft 370 kts 115°
2026-05-06 15:35 42.73969 26.38895 17145 ft 368 kts 115°
2026-05-06 15:35 42.72787 26.41981 16688 ft 365 kts 115°
2026-05-06 15:35 42.71609 26.45055 16230 ft 364 kts 115°
2026-05-06 15:35 42.70443 26.48095 15790 ft 362 kts 115°
2026-05-06 15:36 42.69280 26.51121 15293 ft 360 kts 116°
2026-05-06 15:36 42.68125 26.54119 14833 ft 357 kts 115°
2026-05-06 15:36 42.66992 26.57064 14435 ft 355 kts 115°
2026-05-06 15:36 42.65849 26.60033 13973 ft 355 kts 115°
2026-05-06 15:37 42.64699 26.63014 13535 ft 353 kts 115°
2026-05-06 15:37 42.63563 26.65955 13123 ft 350 kts 115°
2026-05-06 15:37 42.62441 26.68854 12917 ft 341 kts 115°
2026-05-06 15:37 42.61367 26.71627 12833 ft 329 kts 115°
2026-05-06 15:38 42.60319 26.74327 12743 ft 318 kts 115°
2026-05-06 15:38 42.59299 26.76957 12572 ft 311 kts 115°
2026-05-06 15:38 42.58294 26.79547 12237 ft 310 kts 115°
2026-05-06 15:38 42.57288 26.82141 11890 ft 310 kts 115°
2026-05-06 15:39 42.56284 26.84726 11573 ft 309 kts 115°
2026-05-06 15:39 42.55282 26.87302 11254 ft 308 kts 115°
2026-05-06 15:39 42.54282 26.89871 10920 ft 307 kts 115°
2026-05-06 15:39 42.53299 26.92393 10623 ft 306 kts 115°
2026-05-06 15:40 42.52305 26.94943 10304 ft 305 kts 115°
2026-05-06 15:40 42.51314 26.97481 10014 ft 304 kts 115°
2026-05-06 15:40 42.50324 27.00013 9673 ft 303 kts 115°
2026-05-06 15:40 42.49338 27.02534 9361 ft 301 kts 115°
2026-05-06 15:41 42.48359 27.05036 9057 ft 299 kts 115°
2026-05-06 15:41 42.47385 27.07522 8767 ft 297 kts 115°
2026-05-06 15:41 42.46443 27.09924 8487 ft 295 kts 115°
2026-05-06 15:41 42.45493 27.12345 8201 ft 294 kts 115°
2026-05-06 15:42 42.44536 27.14783 7918 ft 292 kts 115°
2026-05-06 15:42 42.43582 27.17211 7631 ft 290 kts 115°
2026-05-06 15:42 42.42636 27.19616 7448 ft 285 kts 115°
2026-05-06 15:42 42.41717 27.21943 7377 ft 276 kts 115°
2026-05-06 15:43 42.40824 27.24204 7308 ft 267 kts 115°
2026-05-06 15:43 42.40199 27.26465 7175 ft 254 kts 91°
2026-05-06 15:43 42.40392 27.28741 7066 ft 238 kts 66°
2026-05-06 15:43 42.41180 27.30637 6954 ft 225 kts 46°
2026-05-06 15:44 42.42244 27.32146 6560 ft 224 kts 41°
2026-05-06 15:44 42.43406 27.33648 5920 ft 235 kts 40°
2026-05-06 15:44 42.44605 27.35183 5229 ft 237 kts 41°
2026-05-06 15:44 42.45778 27.36703 4529 ft 230 kts 42°
2026-05-06 15:45 42.46921 27.38202 3798 ft 227 kts 43°
2026-05-06 15:45 42.48047 27.39684 3070 ft 225 kts 44°
2026-05-06 15:45 42.49147 27.41135 2363 ft 224 kts 45°
2026-05-06 15:45 42.50224 27.42556 1998 ft 207 kts 46°
2026-05-06 15:46 42.51226 27.43877 1591 ft 196 kts 46°
2026-05-06 15:46 42.52176 27.45130 1237 ft 184 kts 45°
2026-05-06 15:46 42.53068 27.46303 919 ft 175 kts 46°
2026-05-06 15:46 42.53652 27.47043 680 ft 170 kts 46°
2026-05-06 15:47 42.54716 27.48474 541 ft 149 kts 48°
2026-05-06 15:47 42.55201 27.49114 410 ft 145 kts 47°
2026-05-06 15:47 42.55904 27.50056 221 ft 143 kts 45°
2026-05-06 15:47 42.56601 27.50984 172 ft 126 kts 44°
2026-05-06 15:48 42.56886 27.51416 173 ft 6 kts 134°
2026-05-06 15:48 42.56837 27.51475 173 ft 12 kts 135°
2026-05-06 15:48 42.56779 27.51553 173 ft 10 kts 134°
2026-05-06 15:48 42.56726 27.51613 173 ft 10 kts 169°
2026-05-06 15:49 42.56669 27.51568 173 ft 10 kts 228°
2026-05-06 15:49 42.56623 27.51500 173 ft 10 kts 228°
2026-05-06 15:49 42.56593 27.51427 172 ft 8 kts 287°
2026-05-06 15:49 42.56631 27.51412 172 ft 6 kts
2026-05-06 15:50 42.56647 27.51413 172 ft 0 kts